TimeWET,TemperatureF,Dew PointF,Humidity,Sea Level PressureIn,VisibilityMPH,Wind Direction,Wind SpeedMPH,Gust SpeedMPH,PrecipitationIn,Events,Conditions,WindDirDegrees,DateUTC
12:00 AM,39,13,20,,12,West,1.2,,,,,280,2012-12-04 00:00:00
12:00 AM,39.2,12.2,33,30.42,-9999.0,Variable,1.2,-,N/A,,Clear,0,2012-12-04 00:00:00
1:00 AM,33.8,14.0,44,30.39,-9999.0,Variable,1.2,-,N/A,,Clear,0,2012-12-04 01:00:00
2:00 AM,35.6,15.8,44,30.39,-9999.0,Variable,2.3,-,N/A,,Clear,0,2012-12-04 02:00:00
3:00 AM,31,13,33,,12,Calm,Calm,,,,,,2012-12-04 03:00:00
3:00 AM,30.2,12.2,47,30.39,-9999.0,Calm,Calm,-,N/A,,Clear,0,2012-12-04 03:00:00
4:00 AM,28.4,12.2,51,30.36,-9999.0,Variable,1.2,-,N/A,,Clear,0,2012-12-04 04:00:00
5:00 AM,28.4,10.4,47,30.36,-9999.0,Variable,1.2,-,N/A,,Clear,0,2012-12-04 05:00:00
6:00 AM,28,11,35,,12,NW,2.3,,,,,310,2012-12-04 06:00:00
6:00 AM,28.4,10.4,47,30.36,-9999.0,Variable,2.3,-,N/A,,Clear,0,2012-12-04 06:00:00
7:00 AM,30.2,10.4,44,30.39,-9999.0,Calm,Calm,-,N/A,,Clear,0,2012-12-04 07:00:00
8:00 AM,26.6,10.4,51,30.39,-9999.0,Variable,1.2,-,N/A,,Clear,0,2012-12-04 08:00:00
9:00 AM,33,13,29,,12,Calm,Calm,,,,,,2012-12-04 09:00:00
9:00 AM,33.8,12.2,41,30.42,-9999.0,Calm,Calm,-,N/A,,Clear,0,2012-12-04 09:00:00
10:00 AM,41.0,14.0,33,30.42,-9999.0,Calm,Calm,-,N/A,,Clear,0,2012-12-04 10:00:00
11:00 AM,46.4,14.0,27,30.42,-9999.0,Calm,Calm,-,N/A,,Clear,0,2012-12-04 11:00:00
12:00 PM,50,15,13,,12,Calm,Calm,,,,,,2012-12-04 12:00:00
12:00 PM,50.0,14.0,24,30.39,-9999.0,Calm,Calm,-,N/A,,Clear,0,2012-12-04 12:00:00
1:00 PM,53.6,12.2,19,30.33,-9999.0,Calm,Calm,-,N/A,,Clear,0,2012-12-04 13:00:00
2:00 PM,57.2,10.4,16,30.30,-9999.0,Variable,1.2,-,N/A,,Clear,0,2012-12-04 14:00:00
3:00 PM,60,11,6,,12,Calm,Calm,,,,,,2012-12-04 15:00:00
3:00 PM,60.8,10.4,14,30.30,-9999.0,Calm,Calm,-,N/A,,Clear,0,2012-12-04 15:00:00
4:00 PM,62.6,10.4,13,30.27,-9999.0,Calm,Calm,-,N/A,,Clear,0,2012-12-04 16:00:00
5:00 PM,60.8,10.4,14,30.27,-9999.0,SE,2.3,-,N/A,,Clear,130,2012-12-04 17:00:00
6:00 PM,59,11,7,,12,NNW,2.3,,,,,330,2012-12-04 18:00:00
6:00 PM,59.0,10.4,15,30.27,-9999.0,NNW,2.3,-,N/A,,Clear,330,2012-12-04 18:00:00
7:00 PM,55.4,10.4,17,30.27,-9999.0,NNW,3.5,-,N/A,,Clear,340,2012-12-04 19:00:00
8:00 PM,53.6,10.4,18,30.30,-9999.0,West,6.9,-,N/A,,Clear,270,2012-12-04 20:00:00
9:00 PM,52,12,10,,12,WSW,4.6,,,,,240,2012-12-04 21:00:00
9:00 PM,51.8,12.2,21,30.30,-9999.0,WSW,4.6,-,N/A,,Clear,240,2012-12-04 21:00:00
10:00 PM,42.8,14.0,31,30.30,-9999.0,NW,1.2,-,N/A,,Clear,310,2012-12-04 22:00:00
11:00 PM,44.6,14.0,29,30.30,-9999.0,West,2.3,-,N/A,,Clear,260,2012-12-04 23:00:00